Location: Lafig�re
(44.4503°N, 4.0357°E)
Time: 10:10:13
(UTC+00:00)

deb Explorer IX - Visible Passes

Search period start: 18 June 2021 00:00
Search period end: 28 June 2021 00:00
Orbit: 542 x 1096 km, 38.8° (Epoch: 17 June)

Date Brightness Start Highest point End Pass type
(mag) Time Alt. Az. Time Alt. Az. Time Alt. Az.
25 Jun ? 03:21:28 10° SSW 03:24:45 19° SSE 03:27:50 10° ESE visible
26 Jun ? 02:57:32 10° SSW 03:00:54 20° SSE 03:04:07 10° ESE visible
27 Jun ? 02:34:35 15° SSW 02:37:02 21° SSE 02:40:24 10° ESE visible
